Powrót do katalogu

STARLINK-35477

AktywnyŁącznośćVLEO
NORAD 66338·PAYLOAD·🇺🇸 United States

Wystrzelony Nov 6, 2025 z Cape Canaveral Space Force Station

Loading…

Następne Przeloty (najbliższe 24 godziny)

TLE

ŚwieżeSource: CelesTrak SupGP

Epoka: Sep 15, 2026, 04:10 UTC

1 66338C 25253V   26258.17409722 -.00040851  00000+0 -14798-2 0  2586
2 66338  43.0021 222.3070 0001371 271.3735 130.0807 15.27595530    16

Śledź STARLINK-35477 w czasie rzeczywistym z AllMySat

Download on the App Store